AirNav   Everest Fuels
 
 1146 users online  

Y47 Oakland Southwest Airport
New Hudson, Michigan, USA

GOING TO NEW HUDSON?


FAA INFORMATION EFFECTIVE 16 JULY 2020

Location

FAA Identifier: Y47
Lat/Long: 42-30-11.2460N 083-37-25.3250W
42-30.187433N 083-37.422083W
42.5031239,-83.6237014
(estimated)
Elevation: 926.1 ft. / 282 m (estimated)
Variation: 07W (2020)
From city: 1 mile SW of NEW HUDSON, MI
Time zone: UTC -4 (UTC -5 during Standard Time)
Zip code: 48165

Airport Operations

Airport use: Open to the public
Activation date: 10/1946
Control tower: no
ARTCC: CLEVELAND CENTER
FSS: LANSING FLIGHT SERVICE STATION
NOTAMs facility: LAN (NOTAM-D service available)
Attendance: MON-FRI 0830-1700, ALL SAT-SUN ON CALL
Wind indicator: lighted
Segmented circle: yes
Lights: ACTVT LIRL RY 08/26 - 3 TIMES ON CTAF.
Beacon: white-green (lighted land airport)
Operates sunset to sunrise.

Airport Communications

CTAF/UNICOM: 122.7
DETROIT APPROACH: 132.35
DETROIT DEPARTURE: 132.35
WX ASOS at PTK (13 nm NE): 125.025 (248-886-8551)
WX ASOS at YIP (16 nm S): PHONE 734-961-6843
WX AWOS-3 at OZW (18 nm NW): 118.875 (517-546-4450)
WX ASOS at ARB (18 nm S): 134.55 (734-668-7173)
WX AWOS-3 at VLL (20 nm E): 119.475 (248-288-4649)

Nearby radio navigation aids

VOR radial/distance  VOR name  Freq  Var
SVMr350/5.8SALEM VORTAC114.3003W
DXOr333/20.8DETROIT VOR/DME113.4006W
CRLr348/28.3CARLETON VOR/DME115.7003W
FNTr175/28.3FLINT VORTAC116.9006W

 
NDB name  Hdg/Dist  Freq  Var  ID
TECUMSEH028/30.523906WTCU - -.-. ..-
GROSSE ILE326/31.941907WRYS .-. -.-- ...

Airport Services

Fuel available: 100LL
Parking: hangars and tiedowns
Bottled oxygen: NONE
Bulk oxygen: NONE

Runway Information

Runway 8/26

Dimensions: 3128 x 40 ft. / 953 x 12 m
Surface: asphalt, in fair condition
Runway edge lights: low intensity
RUNWAY 8  RUNWAY 26
Latitude: 42-30.104963N42-30.269903N
Longitude: 083-37.751758W083-37.092397W
Elevation: 920.9 ft.926.1 ft.
Traffic pattern: leftleft
Runway heading: 078 magnetic, 071 true258 magnetic, 251 true
Displaced threshold: 867 ft.864 ft.
Markings: basic, in fair conditionbasic, in fair condition
Visual slope indicator: 2-box VASI on right (4.00 degrees glide path)
RY 08 VASI OTS INDEF.
2-box VASI on left (4.00 degrees glide path)
RY 26 VASI OTS INDEF.
Runway end identifier lights: nono
Touchdown point: yes, no lightsyes, no lights
Obstructions: 20 ft. brush, 15 ft. from runway
-4 FT DITCH 40 FT FM THR & SCTD +5-15 FT BRUSH.
66 ft. trees, 201 ft. from runway, 145 ft. right of centerline
20' BRUSH 84' FM THR 110' L.

Airport Ownership and Management from official FAA records

Ownership: Publicly-owned
Owner: OAKLAND COUNTY
BOX 329
NEW HUDSON, MI 48165
Phone (248) 437-2333
Manager: CHERYL BUSH
57751 PONTIAC TRAIL
NEW HUDSON, MI 48165
Phone 248-437-2333

Airport Operational Statistics

Aircraft based on the field: 38
Single engine airplanes: 37
Multi engine airplanes: 1
    
Aircraft operations: avg 36/day *
50% transient general aviation
50% local general aviation
* for 12-month period ending 31 December 2017

Additional Remarks

TREES & BRUSH IN PRIMARY SFC 70-120 FT L & R.
FOR CD CTC DETROIT APCH AT 800-499-8181.
CRANE 2874 FT E APCH END RWY 26 (120FT AGL) FLAGGED NOT LGTD.
CRANE 2874 FT E APCH END RWY 26 (120FT AGL) FLAGGED NOT LGTD.
DEER AND LARGE BIRDS ON AND INVOF RWY.

Instrument Procedures

NOTE: All procedures below are presented as PDF files. If you need a reader for these files, you should download the free Adobe Reader.

NOT FOR NAVIGATION. Please procure official charts for flight.
FAA instrument procedures published for use from 16 July 2020 at 0901Z to 13 August 2020 at 0900Z.

 
IAPs - Instrument Approach Procedures
VOR OR GPS-A   download (162KB)
NOTE: Special Take-Off Minimums/Departure Procedures apply   download (255KB)

Other nearby airports with instrument procedures:

1D2 - Canton-Plymouth-Mettetal Airport (12 nm SE)
KPTK - Oakland County International Airport (13 nm NE)
KYIP - Willow Run Airport (16 nm S)
KOZW - Livingston County Spencer J Hardy Airport (18 nm NW)
KARB - Ann Arbor Municipal Airport (18 nm S)
9G2 - Price's Airport (19 nm N)
KVLL - Oakland/Troy Airport (20 nm E)
 
Loc | Ops | Rwys | IFR | FBO | Links
Com | Nav | Svcs | Stats | Notes
Area around Y47 (Oakland Southwest Airport)
 
Road maps at: MapQuest Bing Google
 
Aerial photo
WARNING: Photo may not be current or correct
Aerial photo of Y47 (Oakland Southwest Airport)
Photo by Jeff Franks
Photo taken 13-Jun-2013
looking south.

Do you have a better or more recent aerial photo of Oakland Southwest Airport that you would like to share? If so, please send us your photo.

 
Sectional chart

 
Airport distance calculator
Flying to Oakland Southwest Airport? Find the distance to fly.

From to Y47

Sunrise and sunset
Times for 06-Aug-2020
 Local
(UTC-4)
 Zulu
(UTC)
Morning civil twilight06:0310:03
Sunrise06:3410:34
Sunset20:4700:47
Evening civil twilight21:1801:18

Current date and time
Zulu (UTC)  06-Aug-2020 22:59:23
Local (UTC-4)  06-Aug-2020 18:59:23
 
METAR
KPTK 
13nm NE 
062253Z 07007KT 10SM SCT060 SCT180 24/09 A3011 RMK AO2 SLP194 T02390089
KOZW 
17nm NW 
062235Z AUTO 06005KT 10SM SCT075 24/10 A3013 RMK AO2 T02400095
KYIP 
17nm S 
062253Z 15006KT 10SM FEW080 24/12 A3011 RMK AO2 SLP191 T02440122
KARB 
18nm S 
734-668-7173
062253Z 02004KT 10SM SCT080 23/09 A3011 RMK AO2 SLP194 T02280094
KVLL 
20nm E 
062235Z AUTO 05008KT 10SM SCT065 26/07 A3013 RMK AO2 T02560072
KDTW 
21nm SE 
062253Z 08005KT 10SM FEW065 SCT220 24/09 A3011 RMK AO2 SLP193 T02440089
TAF
KPTK 
13nm NE 
061722Z 0618/0718 06005KT P6SM SCT060 SCT200 FM070100 VRB02KT P6SM SCT250 FM071200 03004KT P6SM SKC
KYIP 
17nm S 
061722Z 0618/0718 10005KT P6SM SCT070 SCT200 FM070100 VRB02KT P6SM SCT200 FM071200 03004KT P6SM SKC
NOTAMs
Click for the latest NOTAMs
NOTAMs are issued by the DoD/FAA and will open in a separate window not controlled by AirNav.

 

 
 

Would you like to see your business listed on this page?

 If your business provides an interesting product or service to pilots, flight crews, aircraft, or users of the Oakland Southwest Airport, you should consider listing it here.  To start the listing process, click on the button below
 
Add a business
 

Other Pages about Oakland Southwest Airport

www.oakgov.com/...
Page from the Michigan Airport Directory (PDF)
 
Update a link
 
Copyright © AirNav, LLC. All rights reserved. Privacy Policy  Contact